WA7ZVY-4 Weather Reports


Display with metric or nautical units.
time (UTC)temp
F
wind
direction
speed
MPH
gust
MPH
rain 1hr
in
rain 24hr
in
rain mn
in
humidity
%
barometer
mb
20260509223339 66 313 7.0 13.0 0.00 0.00 0.00 71 1015.8
20260509223137 66 327 13.0 13.0 0.00 0.00 0.00 71 1015.9
20260509222822 66 296 6.0 13.0 0.00 0.00 0.00 72 1015.8
20260509222630 66 19 8.0 13.0 0.00 0.00 0.00 72 1015.9
20260509222307 65 35 6.0 11.0 0.00 0.00 0.00 72 1015.7
20260509222124 65 324 5.0 11.0 0.00 0.00 0.00 72 1015.7
20260509221748 65 0 7.0 10.0 0.00 0.00 0.00 72 1015.7
20260509221616 65 288 5.0 10.0 0.00 0.00 0.00 72 1015.7
20260509221231 65 317 6.0 10.0 0.00 0.00 0.00 72 1015.8
20260509221109 65 317 7.0 10.0 0.00 0.00 0.00 73 1015.8
20260509220714 65 315 5.0 11.0 0.00 0.00 0.00 73 1015.8
20260509220602 65 315 7.0 11.0 0.00 0.00 0.00 73 1015.9
20260509220157 65 305 8.0 11.0 0.00 0.00 0.00 73 1016.1
20260509220055 65 305 7.0 11.0 0.00 0.00 0.00 73 1016.1
20260509215640 65 47 6.0 11.0 0.00 0.00 0.00 74 1016.3
20260509215548 65 47 6.0 11.0 0.00 0.00 0.00 74 1016.3
20260509215124 65 25 7.0 11.0 0.00 0.00 0.00 75 1016.3
20260509215041 65 25 8.0 11.0 0.00 0.00 0.00 75 1016.3
20260509214605 65 313 8.0 11.0 0.00 0.00 0.00 75 1016.4
20260509214534 65 313 5.0 11.0 0.00 0.00 0.00 75 1016.4
20260509214048 64 23 6.0 10.0 0.00 0.00 0.00 76 1016.5
20260509213531 64 344 7.0 14.0 0.00 0.00 0.00 75 1016.7
20260509213520 64 344 5.0 14.0 0.00 0.00 0.00 75 1016.7
20260509213013 64 28 7.0 14.0 0.00 0.00 0.00 77 1016.7
20260509212506 64 19 8.0 14.0 0.00 0.00 0.00 76 1016.5
20260509212457 64 19 6.0 14.0 0.00 0.00 0.00 76 1016.5
20260509211959 64 317 11.0 14.0 0.00 0.00 0.00 76 1016.6
20260509211942 64 317 10.0 14.0 0.00 0.00 0.00 76 1016.6
20260509211452 64 21 12.0 14.0 0.00 0.00 0.00 77 1016.7
20260509211423 64 357 6.0 10.0 0.00 0.00 0.00 77 1016.7
20260509210945 64 2 7.0 14.0 0.00 0.00 0.00 77 1016.8
20260509210907 64 25 10.0 14.0 0.00 0.00 0.00 78 1016.9
20260509210438 63 334 8.0 14.0 0.00 0.00 0.00 78 1016.9
20260509210350 63 334 11.0 14.0 0.00 0.00 0.00 78 1016.9
20260509205931 63 1 8.0 14.0 0.00 0.00 0.00 78 1016.9
20260509205832 62 78 7.0 14.0 0.00 0.00 0.00 78 1016.9
20260509205424 62 270 10.0 13.0 0.00 0.00 0.00 77 1016.9
20260509205318 62 295 5.0 13.0 0.00 0.00 0.00 77 1016.9
20260509204916 63 310 9.0 13.0 0.00 0.00 0.00 76 1017.1
20260509204758 63 341 8.0 13.0 0.00 0.00 0.00 76 1017.0
20260509204409 63 355 8.0 13.0 0.00 0.00 0.00 76 1017.1
20260509204241 63 329 12.0 13.0 0.00 0.00 0.00 75 1017.2
20260509203903 64 295 12.0 13.0 0.00 0.00 0.00 78 1017.2
20260509203724 63 8 8.0 13.0 0.00 0.00 0.00 78 1017.2
20260509203355 63 8 10.0 13.0 0.00 0.00 0.00 78 1017.3
20260509203208 63 324 10.0 13.0 0.00 0.00 0.00 78 1017.2
20260509202849 63 15 5.0 13.0 0.00 0.00 0.00 78 1017.1
20260509202341 62 49 7.0 16.0 0.00 0.00 0.00 77 1017.3
20260509202133 62 338 7.0 16.0 0.00 0.00 0.00 76 1017.2
20260509201834 63 309 8.0 16.0 0.00 0.00 0.00 75 1017.2
20260509201616 64 308 9.0 16.0 0.00 0.00 0.00 75 1017.3
20260509201327 64 317 9.0 16.0 0.00 0.00 0.00 75 1017.2
20260509201059 64 317 10.0 16.0 0.00 0.00 0.00 74 1017.4
20260509200820 64 320 8.0 10.0 0.00 0.00 0.00 74 1017.4
20260509200542 64 301 8.0 9.0 0.00 0.00 0.00 74 1017.1
20260509195807 64 35 4.0 13.0 0.00 0.00 0.00 73 1017.3
20260509195508 64 298 8.0 13.0 0.00 0.00 0.00 72 1017.3
20260509195259 64 322 7.0 13.0 0.00 0.00 0.00 73 1017.3
20260509194951 65 2 5.0 13.0 0.00 0.00 0.00 74 1017.3
20260509194752 64 329 9.0 13.0 0.00 0.00 0.00 74 1017.4
20260509194434 64 336 6.0 13.0 0.00 0.00 0.00 76 1017.6
20260509194245 64 326 9.0 13.0 0.00 0.00 0.00 76 1017.6
20260509193917 63 326 9.0 13.0 0.00 0.00 0.00 77 1017.5
20260509193738 63 4 9.0 11.0 0.00 0.00 0.00 77 1017.5
20260509193400 62 352 6.0 11.0 0.00 0.00 0.00 77 1017.5
20260509193231 62 313 5.0 11.0 0.00 0.00 0.00 76 1017.5
20260509192843 62 326 7.0 11.0 0.00 0.00 0.00 76 1017.6
20260509192724 62 337 8.0 11.0 0.00 0.00 0.00 76 1017.5
20260509192326 63 296 7.0 11.0 0.00 0.00 0.00 77 1017.6
20260509192217 62 323 9.0 11.0 0.00 0.00 0.00 77 1017.7
20260509191809 62 341 4.0 8.0 0.00 0.00 0.00 77 1017.7
20260509191711 62 305 7.0 8.0 0.00 0.00 0.00 76 1017.7
20260509191253 62 5 9.0 11.0 0.00 0.00 0.00 76 1017.8
20260509191203 63 5 8.0 11.0 0.00 0.00 0.00 76 1017.9
20260509190735 63 306 7.0 11.0 0.00 0.00 0.00 76 1017.7
20260509190656 63 306 8.0 11.0 0.00 0.00 0.00 76 1017.7
20260509190218 64 345 7.0 11.0 0.00 0.00 0.00 78 1017.8
20260509190149 63 28 5.0 11.0 0.00 0.00 0.00 78 1017.8
20260509185701 63 30 5.0 11.0 0.00 0.00 0.00 78 1018.0
20260509185642 63 30 5.0 11.0 0.00 0.00 0.00 78 1018.0
20260509185144 62 316 6.0 10.0 0.00 0.00 0.00 78 1018.1
20260509185135 62 316 6.0 10.0 0.00 0.00 0.00 78 1018.1
20260509184627 63 16 6.0 10.0 0.00 0.00 0.00 78 1018.1
20260509184122 62 67 7.0 10.0 0.00 0.00 0.00 78 1018.2
20260509184110 62 67 8.0 10.0 0.00 0.00 0.00 78 1018.2
20260509183614 62 319 6.0 10.0 0.00 0.00 0.00 79 1018.2
20260509183553 62 319 7.0 10.0 0.00 0.00 0.00 80 1018.2
20260509183107 61 312 6.0 10.0 0.00 0.00 0.00 79 1018.2
20260509183036 61 312 8.0 10.0 0.00 0.00 0.00 79 1018.2
20260509182519 62 324 8.0 10.0 0.00 0.00 0.00 79 1018.2
20260509182053 62 336 7.0 10.0 0.00 0.00 0.00 79 1018.1
20260509182002 62 336 4.0 10.0 0.00 0.00 0.00 79 1018.1
20260509181546 62 312 6.0 10.0 0.00 0.00 0.00 79 1018.1
20260509181445 62 36 6.0 9.0 0.00 0.00 0.00 79 1018.3
20260509181039 62 330 8.0 9.0 0.00 0.00 0.00 79 1018.3
20260509180928 62 330 4.0 9.0 0.00 0.00 0.00 79 1018.3
20260509180532 61 338 5.0 8.0 0.00 0.00 0.00 80 1018.3
20260509180411 61 338 7.0 8.0 0.00 0.00 0.00 81 1018.2
20260509180025 60 278 4.0 10.0 0.00 0.00 0.00 80 1018.3
20260509175854 60 278 4.0 10.0 0.00 0.00 0.00 80 1018.3
20260509175337 60 0 0.0 10.0 0.00 0.00 0.00 80 1018.2
20260509175011 60 357 2.0 10.0 0.00 0.00 0.00 79 1018.3
20260509174820 60 336 3.0 10.0 0.00 0.00 0.00 79 1018.3
20260509174504 61 357 7.0 9.0 0.00 0.00 0.00 80 1018.3
20260509174303 60 282 6.0 9.0 0.00 0.00 0.00 80 1018.4
20260509173957 60 333 5.0 10.0 0.00 0.00 0.00 81 1018.4
20260509173746 60 313 4.0 10.0 0.00 0.00 0.00 81 1018.4
20260509173450 60 333 5.0 10.0 0.00 0.00 0.00 81 1018.5
20260509173229 60 295 7.0 10.0 0.00 0.00 0.00 82 1018.5
20260509172943 60 295 6.0 10.0 0.00 0.00 0.00 81 1018.6
20260509172712 60 313 7.0 10.0 0.00 0.00 0.00 81 1018.6
20260509172437 59 313 8.0 10.0 0.00 0.00 0.00 81 1018.6
20260509172155 59 309 6.0 10.0 0.00 0.00 0.00 81 1018.6
20260509171929 60 347 6.0 10.0 0.00 0.00 0.00 81 1018.6
20260509171640 60 354 6.0 10.0 0.00 0.00 0.00 81 1018.6
20260509171422 60 0 0.0 10.0 0.00 0.00 0.00 81 1018.6
20260509170915 60 317 4.0 10.0 0.00 0.00 0.00 81 1018.6
20260509170604 60 322 8.0 10.0 0.00 0.00 0.00 82 1018.7
20260509170408 60 305 4.0 7.0 0.00 0.00 0.00 82 1018.6
20260509170047 60 9 3.0 7.0 0.00 0.00 0.00 82 1018.7
20260509165901 60 9 3.0 7.0 0.00 0.00 0.00 82 1018.8
20260509165530 60 316 4.0 7.0 0.00 0.00 0.00 83 1018.8
20260509165354 59 316 2.0 7.0 0.00 0.00 0.00 83 1018.8
20260509164847 59 305 6.0 7.0 0.00 0.00 0.00 84 1018.9
20260509164456 59 341 2.0 8.0 0.00 0.00 0.00 84 1018.9
20260509164340 59 341 5.0 8.0 0.00 0.00 0.00 85 1018.9
20260509163939 59 334 1.0 8.0 0.00 0.00 0.00 85 1018.9
20260509163834 59 0 0.0 8.0 0.00 0.00 0.00 85 1018.9
20260509163422 59 267 1.0 8.0 0.00 0.00 0.00 84 1019.0
20260509163326 59 267 1.0 8.0 0.00 0.00 0.00 84 1019.0
20260509162906 59 331 8.0 8.0 0.00 0.00 0.00 84 1019.1
20260509162819 59 331 8.0 8.0 0.00 0.00 0.00 84 1019.1
20260509162352 59 302 5.0 6.0 0.00 0.00 0.00 83 1018.9
20260509162312 59 0 0.0 5.0 0.00 0.00 0.00 83 1018.8
20260509161831 59 266 3.0 5.0 0.00 0.00 0.00 84 1018.9
20260509161805 60 0 0.0 5.0 0.00 0.00 0.00 84 1018.9
20260509161316 59 0 0.0 5.0 0.00 0.00 0.00 85 1018.8
20260509161258 60 0 0.0 5.0 0.00 0.00 0.00 85 1018.8
20260509160751 60 315 2.0 4.0 0.00 0.00 0.00 86 1018.8
20260509160240 59 0 0.0 0.0 0.00 0.00 0.00 88 1018.8
20260509155737 58 124 2.0 6.0 0.00 0.00 0.00 89 1018.8
20260509155724 58 124 2.0 6.0 0.00 0.00 0.00 89 1018.8
20260509155230 58 21 1.0 6.0 0.00 0.00 0.00 91 1018.8
20260509155206 58 21 1.0 6.0 0.00 0.00 0.00 91 1018.8
20260509154723 57 75 2.0 6.0 0.00 0.00 0.00 92 1018.9
20260509154649 57 75 2.0 6.0 0.00 0.00 0.00 92 1018.9
20260509154216 57 42 3.0 6.0 0.00 0.00 0.00 93 1018.8
20260509154132 57 42 3.0 6.0 0.00 0.00 0.00 93 1018.8
20260509153709 56 0 0.0 0.0 0.00 0.00 0.00 94 1018.9
20260509153615 56 0 0.0 0.0 0.00 0.00 0.00 94 1018.8
20260509153202 56 0 0.0 0.0 0.00 0.00 0.00 95 1019.0
20260509153058 56 0 0.0 0.0 0.00 0.00 0.00 95 1019.0
20260509152655 55 0 0.0 0.0 0.00 0.00 0.00 96 1019.0
20260509152541 55 0 0.0 0.0 0.00 0.00 0.00 96 1019.0
20260509152148 55 0 0.0 0.0 0.00 0.00 0.00 96 1019.0
20260509152024 55 0 0.0 0.0 0.00 0.00 0.00 96 1019.0
20260509151643 55 0 0.0 0.0 0.00 0.00 0.00 97 1019.0
20260509151508 54 0 0.0 0.0 0.00 0.00 0.00 97 1019.0
20260509151134 54 0 0.0 0.0 0.00 0.00 0.00 97 1019.0
20260509150950 54 0 0.0 0.0 0.00 0.00 0.00 97 1019.0
20260509150627 54 0 0.0 0.0 0.00 0.00 0.00 98 1019.0
20260509150433 54 0 0.0 0.0 0.00 0.00 0.00 98 1019.0
20260509150120 54 0 0.0 0.0 0.00 0.00 0.00 98 1018.9
20260509145916 54 0 0.0 0.0 0.00 0.00 0.00 98 1018.9
20260509145613 53 98 3.0 7.0 0.00 0.00 0.00 99 1019.0
20260509145359 53 0 0.0 7.0 0.00 0.00 0.00 99 1018.9
20260509145106 53 21 1.0 7.0 0.00 0.00 0.00 99 1018.9
20260509144842 53 21 1.0 7.0 0.00 0.00 0.00 99 1018.8
20260509144559 52 53 2.0 7.0 0.00 0.00 0.00 100 1018.8
20260509144325 52 53 4.0 7.0 0.00 0.00 0.00 100 1018.8
20260509144052 52 43 5.0 7.0 0.00 0.00 0.00 100 1018.9
20260509143808 52 0 0.0 6.0 0.00 0.00 0.00 100 1019.1
20260509143251 51 0 0.0 5.0 0.00 0.00 0.00 100 1019.2
20260509143038 51 0 0.0 5.0 0.00 0.00 0.00 100 1019.2
20260509142734 51 0 0.0 5.0 0.00 0.00 0.00 100 1019.2
20260509142531 51 0 0.0 5.0 0.00 0.00 0.00 100 1019.2
20260509142217 51 0 0.0 5.0 0.00 0.00 0.00 100 1019.0
20260509142024 51 0 0.0 5.0 0.00 0.00 0.00 100 1019.0
20260509141700 50 72 2.0 5.0 0.00 0.00 0.00 100 1018.9
20260509141517 50 72 2.0 5.0 0.00 0.00 0.00 100 1018.9
20260509141143 50 65 2.0 5.0 0.00 0.00 0.00 100 1018.9
20260509140626 49 0 0.0 5.0 0.00 0.00 0.00 100 1019.0
20260509140503 49 0 0.0 5.0 0.00 0.00 0.00 100 1019.0
20260509140109 48 47 2.0 5.0 0.00 0.00 0.00 100 1019.0
20260509135956 48 71 1.0 5.0 0.00 0.00 0.00 100 1019.0
20260509135552 48 64 2.0 5.0 0.00 0.00 0.00 100 1019.0
20260509135449 48 0 0.0 0.0 0.00 0.00 0.00 100 1019.0
20260509135035 47 0 0.0 0.0 0.00 0.00 0.00 100 1018.9
20260509134942 47 0 0.0 0.0 0.00 0.00 0.00 100 1019.0
20260509134518 47 0 0.0 0.0 0.00 0.00 0.00 100 1019.0
20260509134435 47 0 0.0 0.0 0.00 0.00 0.00 100 1019.0
20260509134001 47 0 0.0 0.0 0.00 0.00 0.00 100 1018.9
20260509133928 47 0 0.0 0.0 0.00 0.00 0.00 100 1018.8
20260509133444 46 0 0.0 0.0 0.00 0.00 0.00 100 1019.1
20260509133421 46 0 0.0 0.0 0.00 0.00 0.00 100 1019.1
20260509132927 46 0 0.0 0.0 0.00 0.00 0.00 100 1019.2
20260509132914 46 0 0.0 0.0 0.00 0.00 0.00 100 1019.2
20260509132407 46 0 0.0 0.0 0.00 0.00 0.00 100 1019.0
20260509131900 46 0 0.0 0.0 0.00 0.00 0.00 100 1019.1
20260509131853 46 0 0.0 0.0 0.00 0.00 0.00 100 1019.1
20260509131353 46 0 0.0 0.0 0.00 0.00 0.00 100 1019.2
20260509131336 46 0 0.0 0.0 0.00 0.00 0.00 100 1019.2
20260509130846 46 0 0.0 0.0 0.00 0.00 0.00 100 1019.1
20260509130819 46 0 0.0 0.0 0.00 0.00 0.00 100 1019.1
20260509130339 46 0 0.0 0.0 0.00 0.00 0.00 100 1019.1
20260509130302 46 0 0.0 0.0 0.00 0.00 0.00 100 1019.0
20260509125832 46 0 0.0 0.0 0.00 0.00 0.00 100 1019.1
20260509125745 46 0 0.0 0.0 0.00 0.00 0.00 100 1019.0
20260509125325 46 0 0.0 0.0 0.00 0.00 0.00 100 1019.1
20260509125228 46 0 0.0 0.0 0.00 0.00 0.00 100 1019.1
20260509124818 46 0 0.0 0.0 0.00 0.00 0.00 100 1019.1
20260509124711 46 0 0.0 0.0 0.00 0.00 0.00 100 1019.1
20260509124311 46 0 0.0 0.0 0.00 0.00 0.00 100 1019.0
20260509124156 46 0 0.0 0.0 0.00 0.00 0.00 100 1019.0
20260509123806 46 0 0.0 0.0 0.00 0.00 0.00 100 1019.1
20260509123637 46 0 0.0 0.0 0.00 0.00 0.00 100 1019.1
20260509123257 46 0 0.0 0.0 0.00 0.00 0.00 100 1019.3
20260509123121 46 0 0.0 0.0 0.00 0.00 0.00 100 1019.3
20260509122750 47 0 0.0 0.0 0.00 0.00 0.00 100 1019.3
20260509122603 46 0 0.0 0.0 0.00 0.00 0.00 100 1019.3
20260509122243 47 0 0.0 0.0 0.00 0.00 0.00 100 1019.3
20260509122046 47 0 0.0 0.0 0.00 0.00 0.00 100 1019.3
20260509121736 47 0 0.0 0.0 0.00 0.00 0.00 100 1019.4
20260509121529 47 0 0.0 0.0 0.00 0.00 0.00 100 1019.4
20260509121229 47 0 0.0 0.0 0.00 0.00 0.00 100 1019.3
20260509121109 47 0 0.0 0.0 0.00 0.00 0.00 100 1019.3
20260509121012 47 0 0.0 0.0 0.00 0.00 0.00 100 1019.3
20260509120722 47 0 0.0 0.0 0.00 0.00 0.00 100 1019.4
20260509120455 47 0 0.0 0.0 0.00 0.00 0.00 100 1019.5
20260509120215 47 0 0.0 0.0 0.00 0.00 0.00 100 1019.5
20260509115938 47 0 0.0 0.0 0.00 0.00 0.00 100 1019.6
20260509115708 47 0 0.0 0.0 0.00 0.00 0.00 99 1019.5
20260509115421 47 0 0.0 0.0 0.00 0.00 0.00 99 1019.6
20260509115201 47 0 0.0 0.0 0.00 0.00 0.00 99 1019.5
20260509114904 47 0 0.0 0.0 0.00 0.00 0.00 99 1019.5
20260509114654 47 0 0.0 0.0 0.00 0.00 0.00 99 1019.5
20260509114347 47 0 0.0 0.0 0.00 0.00 0.00 99 1019.5
20260509114147 47 0 0.0 0.0 0.00 0.00 0.00 99 1019.5
20260509113830 47 0 0.0 0.0 0.00 0.00 0.00 99 1019.6
20260509113640 47 0 0.0 0.0 0.00 0.00 0.00 99 1019.5
20260509113133 47 0 0.0 0.0 0.00 0.00 0.00 99 1019.7
20260509112756 47 0 0.0 0.0 0.00 0.00 0.00 99 1019.7
20260509112626 47 0 0.0 0.0 0.00 0.00 0.00 99 1019.7
20260509112239 47 0 0.0 0.0 0.00 0.00 0.00 99 1019.7
20260509111722 47 0 0.0 0.0 0.00 0.00 0.00 99 1019.7
20260509111612 47 0 0.0 0.0 0.00 0.00 0.00 99 1019.6
20260509111205 48 0 0.0 0.0 0.00 0.00 0.00 99 1019.4
20260509111105 47 0 0.0 0.0 0.00 0.00 0.00 99 1019.4
20260509110648 48 0 0.0 0.0 0.00 0.00 0.00 99 1019.5
20260509110559 48 0 0.0 0.0 0.00 0.00 0.00 99 1019.4
20260509110131 48 0 0.0 0.0 0.00 0.00 0.00 99 1019.5
20260509110051 48 0 0.0 0.0 0.00 0.00 0.00 99 1019.4
20260509105614 48 0 0.0 0.0 0.00 0.00 0.00 99 1019.5
20260509105544 48 0 0.0 0.0 0.00 0.00 0.00 99 1019.5
20260509105057 48 0 0.0 0.0 0.00 0.00 0.00 99 1019.5
20260509105037 48 0 0.0 0.0 0.00 0.00 0.00 99 1019.5
20260509104530 48 0 0.0 0.0 0.00 0.00 0.00 99 1019.4
20260509104023 48 0 0.0 0.0 0.00 0.00 0.00 99 1019.5
20260509103506 48 0 0.0 0.0 0.00 0.00 0.00 99 1019.4
20260509103009 48 0 0.0 0.0 0.00 0.00 0.00 99 1019.5
20260509102949 48 0 0.0 0.0 0.00 0.00 0.00 99 1019.5
20260509102502 48 0 0.0 0.0 0.00 0.00 0.00 98 1019.5
20260509102432 48 0 0.0 0.0 0.00 0.00 0.00 98 1019.5
20260509101955 48 0 0.0 0.0 0.00 0.00 0.00 98 1019.6
20260509101915 48 0 0.0 0.0 0.00 0.00 0.00 98 1019.5
20260509101448 48 0 0.0 0.0 0.00 0.00 0.00 98 1019.6
20260509101358 48 0 0.0 0.0 0.00 0.00 0.00 98 1019.6
20260509100941 48 0 0.0 0.0 0.00 0.00 0.00 98 1019.7
20260509100841 48 0 0.0 0.0 0.00 0.00 0.00 98 1019.7
20260509100434 48 0 0.0 0.0 0.00 0.00 0.00 98 1019.7
20260509100324 48 0 0.0 0.0 0.00 0.00 0.00 98 1019.7
20260509095927 48 0 0.0 0.0 0.00 0.00 0.00 98 1019.8
20260509095420 48 0 0.0 0.0 0.00 0.00 0.00 98 1019.8
20260509095250 48 0 0.0 0.0 0.00 0.00 0.00 98 1020.0
20260509094913 48 0 0.0 0.0 0.00 0.00 0.00 98 1020.1
20260509094733 48 0 0.0 0.0 0.00 0.00 0.00 98 1020.1
20260509094406 48 0 0.0 0.0 0.00 0.00 0.00 98 1020.1
20260509094216 49 0 0.0 0.0 0.00 0.00 0.00 98 1020.0
20260509093859 49 0 0.0 0.0 0.00 0.00 0.00 98 1020.0
20260509093659 48 0 0.0 0.0 0.00 0.00 0.00 98 1019.9
20260509093352 49 0 0.0 0.0 0.00 0.00 0.00 98 1019.9
20260509093142 48 0 0.0 0.0 0.00 0.00 0.00 98 1019.9
20260509092845 48 0 0.0 0.0 0.00 0.00 0.00 97 1019.8
20260509092625 49 0 0.0 0.0 0.00 0.00 0.00 97 1019.9
20260509092338 49 0 0.0 0.0 0.00 0.00 0.00 97 1019.8
20260509092108 49 0 0.0 0.0 0.00 0.00 0.00 97 1019.8
20260509091831 48 0 0.0 0.0 0.00 0.00 0.00 97 1019.8
20260509091551 48 0 0.0 0.0 0.00 0.00 0.00 97 1019.8
20260509091324 48 0 0.0 0.0 0.00 0.00 0.00 97 1019.8
20260509091034 48 0 0.0 0.0 0.00 0.00 0.00 97 1019.8
20260509090817 48 0 0.0 0.0 0.00 0.00 0.00 97 1019.8
20260509090517 48 0 0.0 0.0 0.00 0.00 0.00 97 1019.8
20260509090310 48 0 0.0 0.0 0.00 0.00 0.00 97 1019.9
20260509085959 48 0 0.0 0.0 0.00 0.00 0.00 96 1019.9
20260509085803 48 0 0.0 0.0 0.00 0.00 0.00 96 1019.9
20260509085442 48 0 0.0 0.0 0.00 0.00 0.00 96 1020.0
20260509085256 48 0 0.0 0.0 0.00 0.00 0.00 96 1020.0
20260509084925 48 0 0.0 0.0 0.00 0.00 0.00 96 1020.0
20260509084749 48 0 0.0 0.0 0.00 0.00 0.00 96 1020.0
20260509084409 48 0 0.0 0.0 0.00 0.00 0.00 96 1020.0
20260509084242 48 0 0.0 0.0 0.00 0.00 0.00 96 1020.0
20260509083851 48 0 0.0 0.0 0.00 0.00 0.00 96 1020.0
20260509083735 48 0 0.0 0.0 0.00 0.00 0.00 96 1020.1
20260509083334 48 0 0.0 0.0 0.00 0.00 0.00 95 1020.2
20260509083228 48 0 0.0 0.0 0.00 0.00 0.00 96 1020.1
20260509082818 48 0 0.0 0.0 0.00 0.00 0.00 96 1020.1
20260509082721 48 0 0.0 0.0 0.00 0.00 0.00 96 1020.2
20260509082300 48 0 0.0 0.0 0.00 0.00 0.00 96 1020.2
20260509082214 48 0 0.0 0.0 0.00 0.00 0.00 96 1020.2
20260509081743 48 0 0.0 0.0 0.00 0.00 0.00 96 1020.4
20260509081707 48 0 0.0 0.0 0.00 0.00 0.00 96 1020.4
20260509081226 48 0 0.0 0.0 0.00 0.00 0.00 96 1020.4
20260509081159 48 0 0.0 0.0 0.00 0.00 0.00 96 1020.4
20260509080709 49 0 0.0 0.0 0.00 0.00 0.00 95 1020.3
20260509080653 49 0 0.0 0.0 0.00 0.00 0.00 95 1020.3
20260509080154 49 0 0.0 0.0 0.00 0.00 0.00 95 1020.3
20260509080146 49 0 0.0 0.0 0.00 0.00 0.00 95 1020.3
20260509075638 49 0 0.0 0.0 0.00 0.00 0.00 95 1020.2
20260509075635 49 0 0.0 0.0 0.00 0.00 0.00 95 1020.2
20260509075132 49 0 0.0 0.0 0.00 0.00 0.00 95 1020.2
20260509074625 49 0 0.0 0.0 0.00 0.00 0.00 95 1020.3
20260509074601 49 0 0.0 0.0 0.00 0.00 0.00 95 1020.3
20260509074117 49 0 0.0 0.0 0.00 0.00 0.00 95 1020.2
20260509074045 49 0 0.0 0.0 0.00 0.00 0.00 95 1020.2
20260509073610 49 0 0.0 0.0 0.00 0.00 0.00 95 1020.3
20260509073527 49 0 0.0 0.0 0.00 0.00 0.00 95 1020.4
20260509073104 49 0 0.0 0.0 0.00 0.00 0.00 95 1020.4
20260509073010 49 0 0.0 0.0 0.00 0.00 0.00 95 1020.3
20260509072556 49 0 0.0 0.0 0.00 0.00 0.00 95 1020.3
20260509072453 49 0 0.0 0.0 0.00 0.00 0.00 94 1020.4
20260509072049 49 0 0.0 0.0 0.00 0.00 0.00 94 1020.4
20260509071936 49 0 0.0 0.0 0.00 0.00 0.00 94 1020.4
20260509071419 49 0 0.0 0.0 0.00 0.00 0.00 94 1020.5
20260509071035 50 0 0.0 0.0 0.00 0.00 0.00 94 1020.5
20260509070902 50 0 0.0 0.0 0.00 0.00 0.00 94 1020.4
20260509070528 50 0 0.0 0.0 0.00 0.00 0.00 94 1020.5
20260509070345 50 0 0.0 0.0 0.00 0.00 0.00 94 1020.4
20260509070021 50 0 0.0 0.0 0.00 0.00 0.00 94 1020.5
20260509065828 50 0 0.0 0.0 0.00 0.00 0.00 94 1020.4
20260509065316 50 0 0.0 0.0 0.00 0.00 0.00 93 1020.5
20260509065007 50 0 0.0 0.0 0.00 0.00 0.00 93 1020.6
20260509064754 50 0 0.0 0.0 0.00 0.00 0.00 93 1020.5
20260509064500 50 0 0.0 0.0 0.00 0.00 0.00 93 1020.6
20260509064237 50 0 0.0 0.0 0.00 0.00 0.00 93 1020.8
20260509063954 50 0 0.0 0.0 0.00 0.00 0.00 93 1020.8
20260509063720 50 0 0.0 0.0 0.00 0.00 0.00 93 1020.8
20260509063446 50 0 0.0 0.0 0.00 0.00 0.00 93 1020.8
20260509063203 50 0 0.0 0.0 0.00 0.00 0.00 93 1020.7
20260509062939 50 0 0.0 0.0 0.00 0.00 0.00 93 1020.8
20260509062646 51 0 0.0 0.0 0.00 0.00 0.00 93 1020.7
20260509062432 51 0 0.0 0.0 0.00 0.00 0.00 93 1020.7
20260509062129 51 0 0.0 0.0 0.00 0.00 0.00 92 1020.8
20260509061925 51 0 0.0 0.0 0.00 0.00 0.00 92 1020.8
20260509061612 51 0 0.0 0.0 0.00 0.00 0.00 92 1020.8
20260509061418 51 0 0.0 0.0 0.00 0.00 0.00 92 1020.8
20260509061055 51 0 0.0 0.0 0.00 0.00 0.00 92 1020.8
20260509060911 51 0 0.0 0.0 0.00 0.00 0.00 92 1020.8
20260509060538 51 0 0.0 0.0 0.00 0.00 0.00 92 1020.7
20260509060405 51 0 0.0 0.0 0.00 0.00 0.00 92 1020.7
20260509060021 51 0 0.0 0.0 0.00 0.00 0.00 92 1020.9
20260509055857 51 0 0.0 0.0 0.00 0.00 0.00 91 1021.0
20260509055504 51 0 0.0 0.0 0.00 0.00 0.00 91 1020.9
20260509055350 51 0 0.0 0.0 0.00 0.00 0.00 91 1020.9
20260509054947 51 0 0.0 0.0 0.00 0.00 0.00 91 1020.9
20260509054843 51 0 0.0 0.0 0.00 0.00 0.00 91 1020.9
20260509054430 51 0 0.0 0.0 0.00 0.00 0.00 91 1020.9
20260509054336 51 0 0.0 0.0 0.00 0.00 0.00 91 1021.0
20260509053913 51 0 0.0 0.0 0.00 0.00 0.00 90 1021.0
20260509053829 51 0 0.0 0.0 0.00 0.00 0.00 90 1021.0
20260509053356 51 0 0.0 0.0 0.00 0.00 0.00 90 1020.9
20260509053322 51 0 0.0 0.0 0.00 0.00 0.00 90 1020.9
20260509052839 52 0 0.0 0.0 0.00 0.00 0.00 90 1021.0
20260509052815 52 0 0.0 0.0 0.00 0.00 0.00 90 1020.9
20260509052322 52 0 0.0 0.0 0.00 0.00 0.00 90 1021.0
20260509052308 52 0 0.0 0.0 0.00 0.00 0.00 90 1021.0
20260509051801 52 0 0.0 0.0 0.00 0.00 0.00 89 1021.0
20260509051248 52 0 0.0 0.0 0.00 0.00 0.00 89 1020.9
20260509050747 52 0 0.0 0.0 0.00 0.00 0.00 89 1021.0
20260509050731 52 0 0.0 0.0 0.00 0.00 0.00 89 1021.0
20260509050240 52 0 0.0 0.0 0.00 0.00 0.00 88 1020.9
20260509050214 52 0 0.0 0.0 0.00 0.00 0.00 88 1021.0
20260509045733 52 0 0.0 0.0 0.00 0.00 0.00 88 1020.9
20260509045657 52 0 0.0 0.0 0.00 0.00 0.00 88 1020.9
20260509045226 53 0 0.0 0.0 0.00 0.00 0.00 88 1020.9
20260509045140 53 0 0.0 0.0 0.00 0.00 0.00 88 1020.9
20260509044719 53 0 0.0 0.0 0.00 0.00 0.00 88 1020.9
20260509044623 53 0 0.0 0.0 0.00 0.00 0.00 88 1021.1
20260509044212 53 0 0.0 0.0 0.00 0.00 0.00 88 1021.0
20260509044106 53 0 0.0 0.0 0.00 0.00 0.00 88 1021.0
20260509043705 53 0 0.0 0.0 0.00 0.00 0.00 88 1020.9
20260509043549 53 0 0.0 0.0 0.00 0.00 0.00 87 1021.0
20260509043158 53 0 0.0 0.0 0.00 0.00 0.00 87 1020.9
20260509042654 53 0 0.0 0.0 0.00 0.00 0.00 87 1020.9
20260509042144 53 0 0.0 0.0 0.00 0.00 0.00 87 1020.9
20260509041958 53 0 0.0 0.0 0.00 0.00 0.00 87 1020.9
20260509041637 53 0 0.0 0.0 0.00 0.00 0.00 87 1020.9
20260509041441 53 0 0.0 0.0 0.00 0.00 0.00 87 1020.9
20260509041130 54 0 0.0 0.0 0.00 0.00 0.00 86 1020.8
20260509040924 54 0 0.0 0.0 0.00 0.00 0.00 86 1020.8
20260509040623 54 0 0.0 0.0 0.00 0.00 0.00 86 1020.9
20260509040407 54 0 0.0 0.0 0.00 0.00 0.00 86 1020.9
20260509040116 54 0 0.0 0.0 0.00 0.00 0.00 86 1020.8
20260509035851 54 0 0.0 0.0 0.00 0.00 0.00 86 1020.8
20260509035609 54 0 0.0 0.0 0.00 0.00 0.00 86 1020.8
20260509035333 54 0 0.0 0.0 0.00 0.00 0.00 85 1020.7
20260509035102 54 0 0.0 0.0 0.00 0.00 0.00 85 1020.7
20260509034816 54 0 0.0 0.0 0.00 0.00 0.00 85 1020.6
20260509034555 54 0 0.0 0.0 0.00 0.00 0.00 85 1020.6
20260509034259 55 0 0.0 0.0 0.00 0.00 0.00 85 1020.7
20260509034048 55 0 0.0 0.0 0.00 0.00 0.00 85 1020.7
20260509033541 55 0 0.0 0.0 0.00 0.00 0.00 85 1020.7
20260509033225 55 0 0.0 0.0 0.00 0.00 0.00 84 1020.6
20260509033034 55 0 0.0 0.0 0.00 0.00 0.00 84 1020.6
20260509032708 55 0 0.0 5.0 0.00 0.00 0.00 84 1020.6
20260509032527 55 0 0.0 5.0 0.00 0.00 0.00 84 1020.5
20260509032020 55 0 0.0 5.0 0.00 0.00 0.00 84 1020.8
20260509031634 55 61 2.0 5.0 0.00 0.00 0.00 84 1020.7
20260509031513 55 337 1.0 5.0 0.00 0.00 0.00 84 1020.8
20260509031117 55 287 4.0 5.0 0.00 0.00 0.00 83 1020.8
20260509031006 55 0 0.0 5.0 0.00 0.00 0.00 83 1020.7
20260509030600 55 338 2.0 5.0 0.00 0.00 0.00 83 1020.8
20260509030459 56 282 4.0 5.0 0.00 0.00 0.00 83 1020.7
20260509025952 56 0 0.0 0.0 0.00 0.00 0.00 82 1020.8
20260509025526 56 0 0.0 9.0 0.00 0.00 0.00 82 1020.7
20260509025445 56 0 0.0 9.0 0.00 0.00 0.00 82 1020.8
20260509025009 56 345 4.0 9.0 0.00 0.00 0.00 81 1020.8
20260509024938 56 345 4.0 9.0 0.00 0.00 0.00 82 1020.8
20260509024452 56 315 5.0 9.0 0.00 0.00 0.00 81 1020.9
20260509024431 56 315 5.0 9.0 0.00 0.00 0.00 81 1020.9
20260509023935 56 331 6.0 8.0 0.00 0.00 0.00 81 1020.8
20260509023924 56 331 5.0 8.0 0.00 0.00 0.00 81 1020.8
20260509023417 56 357 3.0 7.0 0.00 0.00 0.00 80 1020.8
20260509022910 57 333 5.0 6.0 0.00 0.00 0.00 79 1020.8
20260509022901 57 320 1.0 6.0 0.00 0.00 0.00 79 1020.8
20260509022403 57 345 6.0 6.0 0.00 0.00 0.00 78 1020.8
20260509021856 57 310 5.0 6.0 0.00 0.00 0.00 78 1020.9
20260509021827 57 11 3.0 5.0 0.00 0.00 0.00 78 1020.9
20260509021351 57 334 1.0 6.0 0.00 0.00 0.00 77 1020.9
20260509020842 58 2 4.0 6.0 0.00 0.00 0.00 77 1020.9
20260509020753 58 0 0.0 6.0 0.00 0.00 0.00 76 1020.9
20260509020335 58 0 0.0 6.0 0.00 0.00 0.00 76 1021.0
20260509020236 58 354 3.0 6.0 0.00 0.00 0.00 75 1020.9
20260509015828 58 354 5.0 6.0 0.00 0.00 0.00 74 1020.9
20260509015719 59 302 2.0 4.0 0.00 0.00 0.00 74 1020.9
20260509015321 59 0 0.0 0.0 0.00 0.00 0.00 74 1020.8
20260509015202 59 0 0.0 0.0 0.00 0.00 0.00 74 1020.9
20260509014814 59 0 0.0 0.0 0.00 0.00 0.00 74 1020.8
20260509014645 59 277 1.0 4.0 0.00 0.00 0.00 74 1020.8
20260509014308 59 0 0.0 4.0 0.00 0.00 0.00 74 1020.8
20260509014128 59 0 0.0 4.0 0.00 0.00 0.00 73 1020.8
20260509013800 59 0 0.0 4.0 0.00 0.00 0.00 73 1020.8
20260509013611 59 245 1.0 4.0 0.00 0.00 0.00 73 1020.8
20260509013253 60 0 0.0 4.0 0.00 0.00 0.00 73 1020.8
20260509013054 60 264 2.0 4.0 0.00 0.00 0.00 72 1020.8
20260509012746 60 280 3.0 6.0 0.00 0.00 0.00 72 1020.8
20260509012537 60 280 4.0 6.0 0.00 0.00 0.00 71 1020.8
20260509012240 60 327 2.0 6.0 0.00 0.00 0.00 71 1020.9
20260509012020 60 0 0.0 6.0 0.00 0.00 0.00 70 1020.9
20260509011732 61 299 4.0 6.0 0.00 0.00 0.00 70 1021.0
20260509011503 61 316 2.0 6.0 0.00 0.00 0.00 69 1021.0
20260509011225 61 310 3.0 6.0 0.00 0.00 0.00 68 1021.1
20260509010946 62 310 4.0 7.0 0.00 0.00 0.00 68 1021.1
20260509010718 62 259 6.0 7.0 0.00 0.00 0.00 67 1021.2
20260509010429 63 302 1.0 7.0 0.00 0.00 0.00 67 1021.2
20260509010211 63 338 1.0 7.0 0.00 0.00 0.00 66 1021.2
20260509005912 64 282 0.0 7.0 0.00 0.00 0.00 66 1021.2
20260509005704 64 280 2.0 7.0 0.00 0.00 0.00 65 1021.2
20260509005355 64 275 1.0 7.0 0.00 0.00 0.00 65 1021.3
20260509005157 64 260 5.0 7.0 0.00 0.00 0.00 65 1021.2
20260509004838 64 0 0.0 7.0 0.00 0.00 0.00 66 1021.3
20260509004321 64 0 0.0 7.0 0.00 0.00 0.00 66 1021.4
20260509004143 64 264 4.0 7.0 0.00 0.00 0.00 66 1021.4
20260509003804 64 0 0.0 7.0 0.00 0.00 0.00 66 1021.5
20260509003636 64 317 2.0 7.0 0.00 0.00 0.00 66 1021.5
20260509003247 64 323 5.0 7.0 0.00 0.00 0.00 65 1021.5
20260509003129 64 323 6.0 7.0 0.00 0.00 0.00 65 1021.6
20260509002730 64 330 3.0 7.0 0.00 0.00 0.00 65 1021.6
20260509002622 64 330 5.0 7.0 0.00 0.00 0.00 65 1021.4
20260509002213 64 284 3.0 7.0 0.00 0.00 0.00 65 1021.4
20260509002115 64 284 4.0 7.0 0.00 0.00 0.00 65 1021.4
20260509001608 64 260 6.0 7.0 0.00 0.00 0.00 64 1021.4
20260509001139 65 317 5.0 7.0 0.00 0.00 0.00 64 1021.5
20260509000622 65 285 5.0 7.0 0.00 0.00 0.00 64 1021.5
20260509000554 65 285 4.0 7.0 0.00 0.00 0.00 64 1021.6
20260509000105 66 292 2.0 7.0 0.00 0.00 0.00 64 1021.7
20260509000047 66 292 2.0 7.0 0.00 0.00 0.00 64 1021.7
20260508235548 66 302 6.0 7.0 0.00 0.00 0.00 63 1021.7
20260508235031 66 344 5.0 6.0 0.00 0.00 0.00 63 1021.6
20260508234019 66 323 3.0 6.0 0.00 0.00 0.00 63 1021.6
20260508233957 66 323 4.0 6.0 0.00 0.00 0.00 63 1021.6
20260508232458 65 333 4.0 7.0 0.00 0.00 0.00 64 1021.8
20260508232406 65 253 1.0 7.0 0.00 0.00 0.00 65 1021.9
20260508231849 65 0 0.0 7.0 0.00 0.00 0.00 65 1021.9
20260508231444 64 254 2.0 7.0 0.00 0.00 0.00 64 1021.9
20260508230937 64 295 2.0 8.0 0.00 0.00 0.00 65 1021.8
20260508230815 64 284 1.0 8.0 0.00 0.00 0.00 65 1021.8
20260508225741 65 264 4.0 8.0 0.00 0.00 0.00 64 1021.9
20260508224707 65 310 2.0 5.0 0.00 0.00 0.00 64 1022.0